Regional Weather Roundup
Issued by NWS

Home | Current Version | Previous Version | Text Only | Print | Product List | Glossary Off
Versions: 1 2 3 4 5 6 7 8 9 10 11 12 13 14 15 16 17 18 19 20 21 22 23 24 25 26 27 28 29 30 31 32 33 34 35 36 37 38 39 40 41 42 43 44 45 46 47 48 49 50

000
ASUS43 KIND 202359
RWRIN

WEATHER ROUNDUP FOR INDIANA
NATIONAL WEATHER SERVICE INDIANAPOLIS IN
800 PM EDT MON OCT 20 2014

NOTE: "FAIR" INDICATES FEW OR NO CLOUDS BELOW 12,000 FEET WITH NO
SIGNIFICANT WEATHER AND/OR OBSTRUCTIONS TO VISIBILITY.

* - STATION DOES NOT REPORT WEATHER SUCH AS PRECIPITATION OR FOG.

+ - STATION NOT QUALITY CONTROLLED BY THE NATIONAL WEATHER SERVICE.
    USE DATA WITH CAUTION...ESPECIALLY DEWPOINT AND RELATIVE
    HUMIDITY OBSERVATIONS.

INZ001>003-010>013-019-020-210100-
NORTHWEST INDIANA

CITY           SKY/WX    TMP DP  RH WIND       PRES   REMARKS
GARY /AIRPORT/ CLOUDY    55  48  76 N12       29.96R
VALPARAISO     NOT AVBL

$$

LMZ046-743>745-210100-
SOUTHERN LAKE MICHIGAN

STATION/POSITION TIME  TEMP WIND        PRES
                       AIR  DIR/SP/G
                 (UTC) (F)  (DEG/KT/KT) (MB)
MICHIGAN CITY    2300   54  350/ 21/ 24   N/A

$$

INZ004-005-014>016-021>024-210100-
NORTH CENTRAL INDIANA

CITY           SKY/WX    TMP DP  RH WIND       PRES   REMARKS
ELKHART        CLOUDY    54  46  76 NW8       29.92R
GOSHEN         CLOUDY    54  48  80 NW13      29.90R
6HR MIN TEMP:  54; 6HR MAX TEMP:  63;

SOUTH BEND     CLOUDY    53  47  79 NW13      29.94R
6HR MIN TEMP:  53; 6HR MAX TEMP:  61;


$$

INZ006>009-017-018-025>027-210100-
NORTHEAST INDIANA

CITY           SKY/WX    TMP DP  RH WIND       PRES   REMARKS
ANGOLA *+      CLOUDY    55  48  76 NW9       29.87R
FORT WAYNE     MOCLDY    57  48  72 N10       29.89R
6HR MIN TEMP:  54; 6HR MAX TEMP:  62;


$$

INZ028-029-035-036-043>045-051>053-210100-
WEST CENTRAL INDIANA

CITY           SKY/WX    TMP DP  RH WIND       PRES   REMARKS
GREENCASTLE +  MOCLDY    61  45  55 NW6       29.91R
LAFAYETTE      MOCLDY    60  47  61 NW8       29.90R
6HR MIN TEMP:  59; 6HR MAX TEMP:  67;

TERRE HAUTE    PTCLDY    63  45  51 NW7       29.92R
6HR MIN TEMP:  63; 6HR MAX TEMP:  71;


$$

INZ030>032-037>040-046>048-054>057-064-065-210100-
CENTRAL INDIANA

CITY           SKY/WX    TMP DP  RH WIND       PRES   REMARKS
INDIANAPOLIS   PTCLDY    59  46  62 W8        29.89R
6HR MIN TEMP:  59; 6HR MAX TEMP:  68;

-EAGLE CREEK   PTCLDY    60  47  61 NW7       29.89R
6HR MIN TEMP:  60; 6HR MAX TEMP:  68;

KOKOMO *+      MOCLDY    57  46  67 N9        29.90R
MT COMFORT *+  PTCLDY    57  41  54 W6        29.89R
SHELBYVILLE    MOCLDY    60  45  57 W6        29.88R
6HR MIN TEMP:  60; 6HR MAX TEMP:  69;


$$

INZ033-034-041-042-049-050-058-059-210100-
EAST CENTRAL INDIANA

CITY           SKY/WX    TMP DP  RH WIND       PRES   REMARKS
MUNCIE         MOCLDY    57  50  77 NW6       29.88R
6HR MIN TEMP:  56; 6HR MAX TEMP:  65; 6HR PCP:  0.01;


$$

INZ060-061-067>069-081>083-085>088-210100-
SOUTHWEST INDIANA

CITY           SKY/WX    TMP DP  RH WIND       PRES   REMARKS
EVANSVILLE     CLEAR     66  52  60 NW5       29.93R
6HR MIN TEMP:  65; 6HR MAX TEMP:  72;

HUNTINGBURG *+ PTCLDY    61  50  67 N5        29.92R
6HR MIN TEMP:  61; 6HR MAX TEMP:  70;


$$

INZ062-063-066-070>080-084-089>092-210100-
SOUTH CENTRAL AND SOUTHEAST INDIANA

CITY           SKY/WX    TMP DP  RH WIND       PRES   REMARKS
BLOOMINGTON    PTCLDY    61  44  53 NW3       29.91R
6HR MIN TEMP:  61; 6HR MAX TEMP:  70;


$$



USA.gov is the U.S. government's official web portal to all federal, state and local government web resources and services.